TimeEDT,TemperatureF,Dew PointF,Humidity,Sea Level PressureIn,VisibilityMPH,Wind Direction,Wind SpeedMPH,Gust SpeedMPH,PrecipitationIn,Events,Conditions,WindDirDegrees,DateUTC
12:14 AM,27.5,26.4,96,30.09,10.0,Calm,Calm,-,N/A,,Clear,0,2012-11-03 04:14:00
12:33 AM,27.9,27.1,97,30.10,10.0,Calm,Calm,-,N/A,,Mostly Cloudy,0,2012-11-03 04:33:00
12:53 AM,30.2,29.1,96,30.10,10.0,Calm,Calm,-,N/A,,Overcast,0,2012-11-03 04:53:00
1:13 AM,30.7,29.3,94,30.10,10.0,Calm,Calm,-,N/A,,Overcast,0,2012-11-03 05:13:00
1:33 AM,32.0,30.2,93,30.11,10.0,Calm,Calm,-,N/A,,Overcast,0,2012-11-03 05:33:00
1:53 AM,32.0,30.0,92,30.11,10.0,Calm,Calm,-,N/A,,Overcast,0,2012-11-03 05:53:00
2:13 AM,31.3,29.5,93,30.12,10.0,WNW,3.5,-,N/A,,Mostly Cloudy,300,2012-11-03 06:13:00
2:33 AM,30.0,28.8,95,30.12,10.0,Calm,Calm,-,N/A,,Scattered Clouds,0,2012-11-03 06:33:00
2:53 AM,29.5,28.4,96,30.12,10.0,West,3.5,-,N/A,,Mostly Cloudy,280,2012-11-03 06:53:00
3:13 AM,31.1,29.5,94,30.12,10.0,Calm,Calm,-,N/A,,Mostly Cloudy,0,2012-11-03 07:13:00
3:33 AM,29.8,28.8,96,30.12,10.0,Calm,Calm,-,N/A,,Scattered Clouds,0,2012-11-03 07:33:00
3:53 AM,29.1,28.0,96,30.13,10.0,Calm,Calm,-,N/A,,Clear,0,2012-11-03 07:53:00
4:13 AM,27.9,27.1,97,30.13,10.0,Calm,Calm,-,N/A,,Clear,0,2012-11-03 08:13:00
4:33 AM,27.9,27.5,99,30.13,10.0,Calm,Calm,-,N/A,,Clear,0,2012-11-03 08:33:00
4:53 AM,26.6,26.2,99,30.14,10.0,Calm,Calm,-,N/A,,Scattered Clouds,0,2012-11-03 08:53:00
5:13 AM,27.9,27.5,99,30.14,10.0,Calm,Calm,-,N/A,,Overcast,0,2012-11-03 09:13:00
5:33 AM,28.9,28.6,99,30.14,10.0,Calm,Calm,-,N/A,,Overcast,0,2012-11-03 09:33:00
5:53 AM,31.1,30.2,96,30.15,10.0,Calm,Calm,-,N/A,,Overcast,0,2012-11-03 09:53:00
6:13 AM,31.8,30.2,94,30.15,10.0,NW,3.5,-,N/A,,Overcast,310,2012-11-03 10:13:00
6:33 AM,32.0,30.9,96,30.16,10.0,Calm,Calm,-,N/A,,Overcast,0,2012-11-03 10:33:00
6:54 AM,32.0,30.0,92,30.16,10.0,North,3.5,-,N/A,,Overcast,360,2012-11-03 10:54:00
7:13 AM,32.0,29.1,89,30.16,10.0,Calm,Calm,-,N/A,,Overcast,0,2012-11-03 11:13:00
7:33 AM,32.0,28.4,87,30.16,10.0,NNE,3.5,-,N/A,,Overcast,20,2012-11-03 11:33:00
7:53 AM,32.0,28.2,86,30.16,10.0,NNE,5.8,-,N/A,,Overcast,20,2012-11-03 11:53:00
8:13 AM,31.8,27.3,83,30.16,10.0,North,3.5,-,N/A,,Overcast,350,2012-11-03 12:13:00
8:34 AM,31.1,25.7,80,30.17,10.0,NNW,3.5,-,N/A,,Scattered Clouds,330,2012-11-03 12:34:00
8:53 AM,31.1,25.9,81,30.17,10.0,NNW,3.5,-,N/A,,Clear,340,2012-11-03 12:53:00
9:13 AM,32.0,26.4,80,30.18,10.0,NNW,4.6,-,N/A,,Clear,330,2012-11-03 13:13:00
9:34 AM,32.9,26.6,78,30.18,10.0,NNW,8.1,-,N/A,,Clear,330,2012-11-03 13:34:00
9:53 AM,33.3,26.6,77,30.19,10.0,NNW,6.9,-,N/A,,Clear,340,2012-11-03 13:53:00
10:13 AM,33.8,26.6,75,30.19,10.0,North,9.2,-,N/A,,Clear,350,2012-11-03 14:13:00
10:34 AM,34.7,26.6,72,30.19,10.0,NW,8.1,-,N/A,,Clear,320,2012-11-03 14:34:00
10:53 AM,35.4,27.0,71,30.20,10.0,NW,8.1,-,N/A,,Scattered Clouds,310,2012-11-03 14:53:00
11:13 AM,35.6,27.0,71,30.20,10.0,NNW,9.2,-,N/A,,Clear,330,2012-11-03 15:13:00
11:33 AM,35.8,26.4,69,30.20,10.0,WNW,5.8,-,N/A,,Clear,290,2012-11-03 15:33:00
11:53 AM,35.8,26.4,69,30.20,10.0,Calm,Calm,-,N/A,,Scattered Clouds,0,2012-11-03 15:53:00
12:13 PM,37.6,27.9,68,30.20,10.0,NW,5.8,-,N/A,,Mostly Cloudy,310,2012-11-03 16:13:00
12:33 PM,36.7,26.8,67,30.20,10.0,Calm,Calm,-,N/A,,Overcast,0,2012-11-03 16:33:00
12:53 PM,37.4,28.0,69,30.19,10.0,WNW,5.8,-,N/A,,Overcast,290,2012-11-03 16:53:00
1:14 PM,37.4,27.7,68,30.19,10.0,NW,3.5,-,N/A,,Overcast,320,2012-11-03 17:14:00
1:33 PM,37.4,27.5,67,30.19,10.0,NNW,4.6,-,N/A,,Overcast,340,2012-11-03 17:33:00
1:53 PM,38.3,27.7,66,30.19,10.0,NNW,4.6,-,N/A,,Overcast,330,2012-11-03 17:53:00
2:14 PM,37.4,27.9,68,30.18,10.0,NNW,5.8,-,N/A,,Overcast,330,2012-11-03 18:14:00
2:33 PM,37.8,27.5,67,30.18,10.0,WNW,4.6,-,N/A,,Overcast,300,2012-11-03 18:33:00
2:54 PM,37.0,28.4,71,30.18,10.0,NNW,8.1,-,N/A,,Overcast,330,2012-11-03 18:54:00
3:13 PM,36.5,27.9,71,30.18,10.0,NW,6.9,-,N/A,,Overcast,320,2012-11-03 19:13:00
3:33 PM,36.7,28.0,71,30.17,10.0,North,4.6,-,N/A,,Overcast,360,2012-11-03 19:33:00
3:54 PM,36.3,27.7,71,30.18,10.0,NNW,6.9,-,N/A,,Overcast,340,2012-11-03 19:54:00
4:13 PM,35.8,27.3,71,30.19,10.0,North,4.6,-,N/A,,Overcast,360,2012-11-03 20:13:00
4:33 PM,35.6,27.3,72,30.19,10.0,NNW,4.6,-,N/A,,Overcast,330,2012-11-03 20:33:00
4:54 PM,35.8,26.6,69,30.19,10.0,NW,3.5,-,N/A,,Overcast,320,2012-11-03 20:54:00
5:13 PM,35.8,26.6,69,30.18,10.0,NNE,4.6,-,N/A,,Scattered Clouds,20,2012-11-03 21:13:00
5:33 PM,36.0,26.1,67,30.18,10.0,Calm,Calm,-,N/A,,Clear,0,2012-11-03 21:33:00
5:54 PM,35.6,26.4,69,30.18,10.0,North,4.6,-,N/A,,Clear,10,2012-11-03 21:54:00
6:13 PM,34.9,26.4,71,30.17,10.0,Calm,Calm,-,N/A,,Clear,0,2012-11-03 22:13:00
6:34 PM,34.2,26.2,73,30.17,10.0,Calm,Calm,-,N/A,,Clear,0,2012-11-03 22:34:00
6:53 PM,32.7,26.1,76,30.17,10.0,Calm,Calm,-,N/A,,Clear,0,2012-11-03 22:53:00
7:13 PM,32.0,26.6,80,30.18,10.0,Calm,Calm,-,N/A,,Clear,0,2012-11-03 23:13:00
7:34 PM,30.9,25.7,81,30.17,10.0,Calm,Calm,-,N/A,,Clear,0,2012-11-03 23:34:00
7:53 PM,30.6,26.6,85,30.19,10.0,Calm,Calm,-,N/A,,Clear,0,2012-11-03 23:53:00
8:13 PM,30.0,26.1,85,30.19,10.0,Calm,Calm,-,N/A,,Clear,0,2012-11-04 00:13:00
8:34 PM,28.9,25.9,88,30.19,10.0,Calm,Calm,-,N/A,,Clear,0,2012-11-04 00:34:00
8:53 PM,28.2,25.3,89,30.19,10.0,Calm,Calm,-,N/A,,Clear,0,2012-11-04 00:53:00
9:13 PM,27.9,25.0,89,30.19,10.0,Calm,Calm,-,N/A,,Clear,0,2012-11-04 01:13:00
9:33 PM,27.3,24.8,90,30.20,10.0,Calm,Calm,-,N/A,,Clear,0,2012-11-04 01:33:00
9:53 PM,30.2,25.5,83,30.20,10.0,NNE,3.5,-,N/A,,Clear,30,2012-11-04 01:53:00
10:14 PM,30.0,25.5,83,30.20,10.0,Calm,Calm,-,N/A,,Mostly Cloudy,0,2012-11-04 02:14:00
10:33 PM,29.7,26.1,86,30.20,10.0,Calm,Calm,-,N/A,,Overcast,0,2012-11-04 02:33:00
10:53 PM,31.1,26.2,82,30.20,10.0,North,3.5,-,N/A,,Overcast,10,2012-11-04 02:53:00
11:14 PM,31.8,26.2,80,30.20,10.0,North,4.6,-,N/A,,Overcast,360,2012-11-04 03:14:00
11:33 PM,32.0,26.2,79,30.20,10.0,North,3.5,-,N/A,,Overcast,10,2012-11-04 03:33:00
11:54 PM,32.0,25.9,78,30.20,10.0,North,3.5,-,N/A,,Overcast,10,2012-11-04 03:54:00